Location: Newark
(39.0622°N, 106.5590°E)
Time: 00:00:17
(UTC+00:00)

Vanguard 2 Rocket - Pass Details

Date: 31 January 2020
Orbit: 553 x 3327 km, 32.9° (Epoch: 25 February)

Event Time Altitude Azimuth Distance (km) Brightness Sun altitude
Rises 20:37:10 0° 246° (WSW) 2,833 - -39.7°
Reaches altitude 10° 20:39:37 10° 235° (SW) 1,842 - -39.3°
Maximum altitude 20:43:10 32° 171° (S) 964 - -38.6°
Exits shadow 20:46:40 12° 108° (ESE) 1,865 9.1 -37.9°
Drops below altitude 10° 20:46:59 10° 106° (ESE) 1,985 9.3 -37.8°
Sets 20:49:44 0° 97° (E) 3,099 10.5 -37.3°
